Tiempo cada hora Cedar Rapids

Hoy, 23 Abril, Viernes

Tiempo Temperatura Precipitaciones Viento Presión Humedad
00:00 +5°C° 0 mm 3 mps 741 mmHg 71%
01:00 +5°C° 0 mm 3 mps 740 mmHg 71%
02:00 +5°C° 0 mm 3 mps 740 mmHg 71%
03:00 +4°C° 0 mm 3 mps 740 mmHg 71%
04:00 +4°C° 0 mm 3 mps 740 mmHg 73%
05:00 +3°C° 0 mm 3 mps 740 mmHg 75%
06:00 +3°C° 0 mm 3 mps 739 mmHg 76%
07:00 +5°C° 0 mm 3 mps 739 mmHg 73%
08:00 +6°C° 0 mm 4 mps 739 mmHg 71%
09:00 +8°C° 0 mm 4 mps 739 mmHg 68%
10:00 +8°C° 0 mm 4 mps 739 mmHg 72%
11:00 +7°C° 0 mm 5 mps 739 mmHg 75%
12:00 +7°C° 0 mm 5 mps 739 mmHg 79%
13:00 +8°C° 0 mm 5 mps 738 mmHg 79%
14:00 +8°C° 0 mm 4 mps 738 mmHg 80%
15:00 +10°C° 0 mm 4 mps 737 mmHg 80%
16:00 +10°C° 0 mm 4 mps 737 mmHg 83%
17:00 +9°C° 0 mm 3 mps 737 mmHg 85%
18:00 +9°C° 0 mm 3 mps 737 mmHg 88%
19:00 +9°C° 0 mm 2 mps 737 mmHg 90%
20:00 +9°C° 0 mm 2 mps 737 mmHg 92%
21:00 +8°C° 0 mm 2 mps 738 mmHg 94%
22:00 +9°C° 0 mm 1 mps 737 mmHg 94%
23:00 +9°C° 0 mm 1 mps 737 mmHg 95%

Mañana, 24 Abril, Sábado

Tiempo Temperatura Precipitaciones Viento Presión Humedad
00:00 +9°C° 0 mm 1 mps 737 mmHg 96%
01:00 +9°C° 0 mm 1 mps 737 mmHg 96%
02:00 +9°C° 0 mm 1 mps 737 mmHg 96%
03:00 +9°C° 0 mm 1 mps 736 mmHg 96%
04:00 +9°C° 0 mm 1 mps 737 mmHg 94%
05:00 +9°C° 0 mm 1 mps 737 mmHg 92%
06:00 +8°C° 0 mm 2 mps 737 mmHg 90%
07:00 +10°C° 0 mm 2 mps 737 mmHg 81%
08:00 +11°C° 0 mm 3 mps 737 mmHg 71%
09:00 +13°C° 0 mm 4 mps 737 mmHg 61%
10:00 +12°C° 0 mm 5 mps 737 mmHg 64%
11:00 +11°C° 0 mm 6 mps 738 mmHg 67%
12:00 +10°C° 0 mm 7 mps 738 mmHg 69%
13:00 +10°C° 0 mm 7 mps 738 mmHg 68%
14:00 +10°C° 0 mm 7 mps 738 mmHg 66%
15:00 +9°C° 0 mm 7 mps 738 mmHg 65%
16:00 +8°C° 0 mm 6 mps 739 mmHg 64%
17:00 +7°C° 0 mm 6 mps 739 mmHg 64%
18:00 +5°C° 0 mm 6 mps 739 mmHg 64%
19:00 +5°C° 0 mm 5 mps 740 mmHg 66%
20:00 +4°C° 0 mm 4 mps 740 mmHg 68%
21:00 +3°C° 0 mm 3 mps 741 mmHg 70%
22:00 +2°C° 0 mm 3 mps 741 mmHg 72%
23:00 +2°C° 0 mm 3 mps 741 mmHg 74%

Pasado mañana, 25 Abril, Domingo

Tiempo Temperatura Precipitaciones Viento Presión Humedad
00:00 +2°C° 0 mm 2 mps 741 mmHg 76%
01:00 +2°C° 0 mm 2 mps 741 mmHg 76%
02:00 +2°C° 0 mm 2 mps 741 mmHg 76%
03:00 +2°C° 0 mm 2 mps 741 mmHg 77%
04:00 +1°C° 0 mm 2 mps 742 mmHg 78%
05:00 +1°C° 0 mm 2 mps 742 mmHg 80%
06:00 +1°C° 0 mm 2 mps 742 mmHg 82%
07:00 +2°C° 0 mm 3 mps 742 mmHg 72%
08:00 +3°C° 0 mm 4 mps 743 mmHg 61%
09:00 +5°C° 0 mm 4 mps 743 mmHg 50%
10:00 +5°C° 0.2 mm 5 mps 742 mmHg 53%
11:00 +5°C° 0.2 mm 5 mps 742 mmHg 56%
12:00 +6°C° 0.2 mm 5 mps 742 mmHg 59%
13:00 +7°C° 0 mm 6 mps 741 mmHg 56%
14:00 +8°C° 0 mm 6 mps 740 mmHg 53%
15:00 +9°C° 0 mm 7 mps 740 mmHg 49%
16:00 +9°C° 0 mm 6 mps 740 mmHg 54%
17:00 +9°C° 0 mm 5 mps 740 mmHg 58%
18:00 +9°C° 0 mm 5 mps 740 mmHg 62%
19:00 +8°C° 0 mm 6 mps 740 mmHg 64%
20:00 +7°C° 0 mm 6 mps 739 mmHg 66%
21:00 +5°C° 0 mm 7 mps 739 mmHg 68%
22:00 +5°C° 0 mm 7 mps 739 mmHg 67%
23:00 +4°C° 0 mm 7 mps 739 mmHg 65%

26 Abril, Lunes

Tiempo Temperatura Precipitaciones Viento Presión Humedad
00:00 +4°C° 0 mm 7 mps 739 mmHg 64%
01:00 +4°C° 0 mm 7 mps 738 mmHg 66%
02:00 +4°C° 0 mm 7 mps 738 mmHg 68%
03:00 +4°C° 0 mm 7 mps 737 mmHg 70%
04:00 +5°C° 0 mm 7 mps 737 mmHg 73%
05:00 +5°C° 0 mm 8 mps 736 mmHg 76%
06:00 +6°C° 0 mm 8 mps 736 mmHg 79%
07:00 +9°C° 0.1 mm 8 mps 736 mmHg 80%
08:00 +11°C° 0.1 mm 9 mps 735 mmHg 80%
09:00 +13°C° 0.1 mm 9 mps 734 mmHg 81%
10:00 +16°C° 0 mm 9 mps 734 mmHg 77%
11:00 +18°C° 0 mm 9 mps 733 mmHg 73%
12:00 +19°C° 0 mm 9 mps 732 mmHg 69%
13:00 +21°C° 0 mm 9 mps 732 mmHg 69%
14:00 +22°C° 0 mm 9 mps 731 mmHg 69%
15:00 +23°C° 0 mm 8 mps 731 mmHg 69%
16:00 +23°C° 0 mm 8 mps 731 mmHg 69%
17:00 +23°C° 0 mm 8 mps 731 mmHg 70%
18:00 +24°C° 0 mm 8 mps 730 mmHg 71%
19:00 +23°C° 0 mm 8 mps 731 mmHg 73%
20:00 +22°C° 0 mm 8 mps 731 mmHg 74%
21:00 +21°C° 0 mm 8 mps 731 mmHg 76%
22:00 +21°C° 0 mm 8 mps 732 mmHg 78%
23:00 +20°C° 0 mm 7 mps 732 mmHg 80%

27 Abril, Martes

Tiempo Temperatura Precipitaciones Viento Presión Humedad
00:00 +18°C° 0 mm 7 mps 732 mmHg 83%
01:00 +18°C° 0 mm 7 mps 732 mmHg 83%
02:00 +18°C° 0 mm 7 mps 732 mmHg 83%
03:00 +17°C° 0 mm 6 mps 731 mmHg 83%
04:00 +17°C° 0 mm 6 mps 732 mmHg 84%
05:00 +17°C° 0 mm 5 mps 732 mmHg 84%
06:00 +16°C° 0 mm 5 mps 732 mmHg 85%
07:00 +19°C° 0 mm 6 mps 732 mmHg 80%
08:00 +20°C° 0 mm 7 mps 732 mmHg 75%
09:00 +22°C° 0 mm 8 mps 732 mmHg 70%
10:00 +23°C° 0 mm 8 mps 732 mmHg 66%
11:00 +24°C° 0 mm 7 mps 732 mmHg 62%
12:00 +26°C° 0 mm 7 mps 732 mmHg 58%
13:00 +26°C° 0 mm 7 mps 732 mmHg 59%
14:00 +27°C° 0 mm 6 mps 732 mmHg 60%
15:00 +27°C° 0 mm 5 mps 732 mmHg 60%
16:00 +26°C° 0 mm 4 mps 732 mmHg 65%
17:00 +25°C° 0 mm 3 mps 732 mmHg 70%
18:00 +24°C° 0 mm 2 mps 732 mmHg 75%
19:00 +22°C° 0.7 mm 3 mps 733 mmHg 80%
20:00 +21°C° 0.7 mm 4 mps 733 mmHg 85%
21:00 +20°C° 0.7 mm 5 mps 734 mmHg 89%
22:00 +19°C° 0.2 mm 4 mps 734 mmHg 90%
23:00 +18°C° 0.2 mm 3 mps 734 mmHg 91%

28 Abril, Miércoles

Tiempo Temperatura Precipitaciones Viento Presión Humedad
00:00 +18°C° 0.2 mm 2 mps 734 mmHg 92%
01:00 +17°C° 0.6 mm 2 mps 734 mmHg 93%
02:00 +16°C° 0.6 mm 2 mps 734 mmHg 95%
03:00 +16°C° 0.6 mm 2 mps 733 mmHg 96%
04:00 +16°C° 0 mm 2 mps 734 mmHg 96%
05:00 +15°C° 0 mm 2 mps 734 mmHg 96%
06:00 +15°C° 0 mm 2 mps 734 mmHg 96%
07:00 +14°C° 0 mm 3 mps 734 mmHg 92%
08:00 +16°C° 0 mm 3 mps 734 mmHg 88%
09:00 +15°C° 0 mm 4 mps 734 mmHg 84%
10:00 +17°C° 0 mm 4 mps 735 mmHg 81%
11:00 +18°C° 0 mm 3 mps 735 mmHg 78%
12:00 +18°C° 0 mm 3 mps 735 mmHg 75%
13:00 +18°C° 0 mm 3 mps 734 mmHg 76%
14:00 +18°C° 0 mm 4 mps 734 mmHg 77%
15:00 +18°C° 0 mm 4 mps 734 mmHg 77%
16:00 +16°C° 0 mm 5 mps 734 mmHg 79%
17:00 +15°C° 0 mm 6 mps 733 mmHg 80%
18:00 +14°C° 0 mm 6 mps 733 mmHg 81%
19:00 +13°C° 0 mm 6 mps 733 mmHg 83%
20:00 +11°C° 0 mm 6 mps 733 mmHg 84%
21:00 +10°C° 0 mm 6 mps 733 mmHg 86%
22:00 +10°C° 0.7 mm 7 mps 733 mmHg 88%
23:00 +9°C° 0.7 mm 7 mps 732 mmHg 91%
Mostrar más

Necesitamos Su Consentimiento

Meteoprog y nuestros Proveedores de Servicios pueden almacenar y acceder a sus datos personales como cookies, identificadores de dispositivo u otras tecnologías similares de su dispositivo y procesar dichos datos para personalizar contenido y anuncios, además de ofrecer funciones de redes sociales y analizar el tráfico.

  • Almacenar y/o acceder a información en su dispositivo

    Se puede almacenar o acceder a cookies, identificadores de dispositivo u otra información de su dispositivo para los fines anteriormente indicados.

  • Anuncios y contenido personalizados, medición de anuncios y contenido, percepciones del público, y desarrollo de productos

    Los anuncios y el contenido pueden personalizarse en base a su perfil. Se pueden añadir más datos para personalizar mejor los anuncios y contenidos. Se puede medir el rendimiento de los anuncios y contenidos. Se puede obtener la percepción sobre el público que ha visto los anuncios y contenidos. Dichos datos pueden usarse para desarrollar o mejorar la experiencia del usuario, sistemas y software.

Al hacer clic en ‘Estoy De Acuerdo’ usted permitirá el uso de las cookies, identificadores de dispositivo, balizas web u otras tecnologías similares indicadas. Su configuración puede cambiarse desde el navegador de su dispositivo.

Para ciertos fines, los intereses legítimos pueden ser considerados por encima del consentimiento. Puede leer más sobre ello en nuestra Política de Privacidad y Cookies.